2002,11,01,00,05,-4.65,1,-99999,99,-4.51,01,0,99,0,99
2002,11,01,00,10,-4.34,1,-99999,99,-4.44,01,0,99,0,99
2002,11,01,00,15,-4.43,1,-99999,99,-4.43,01,0,99,0,99
2002,11,01,00,20,-4.57,1,-99999,99,-4.5,01,0,99,0,99
2002,11,01,00,25,-4.57,1,-99999,99,-4.5,01,0,99,0,99
2002,11,01,00,30,-4.37,1,-99999,99,-4.43,01,0,99,0,99
2002,11,01,00,35,-4.55,1,-99999,99,-4.44,01,0,99,0,99
2002,11,01,00,40,-4.54,1,-99999,99,-4.44,01,0,99,0,99
2002,11,01,00,45,-4.31,1,-99999,99,-4.43,01,0,99,0,99
2002,11,01,00,50,-4.17,1,-99999,99,-4.43,01,0,99,0,99
2002,11,01,00,55,-4.42,1,-99999,99,-4.43,01,0,99,0,99
2002,11,01,01,00,-4.4,1,-99999,99,-4.46,01,0,99,0,99
2002,11,01,01,05,-4.43,1,-99999,99,-4.54,01,0,99,0,99
2002,11,01,01,10,-4.4,1,-99999,99,-4.46,01,0,99,0,99
2002,11,01,01,15,-4.35,1,-99999,99,-4.39,01,0,99,0,99
2002,11,01,01,20,-4.07,1,-99999,99,-4.33,01,0,99,0,99
2002,11,01,01,25,-4.35,1,-99999,99,-4.43,01,0,99,0,99
2002,11,01,01,30,-4.2,1,-99999,99,-4.41,01,0,99,0,99
2002,11,01,01,35,-4.21,1,-99999,99,-4.39,01,0,99,0,99
2002,11,01,01,40,-4.09,1,-99999,99,-4.4,01,0,99,0,99
2002,11,01,01,45,-4.16,1,-99999,99,-4.42,01,0,99,0,99
2002,11,01,01,50,-4.31,1,-99999,99,-4.43,01,0,99,0,99
2002,11,01,01,55,-4.35,1,-99999,99,-4.43,01,0,99,0,99
2002,11,01,02,00,-4.39,1,-99999,99,-4.45,01,0,99,0,99
2002,11,01,02,05,-4.44,1,-99999,99,-4.46,01,0,99,0,99
2002,11,01,02,10,-4.37,1,-99999,99,-4.43,01,0,99,0,99
2002,11,01,02,15,-4.14,1,-99999,99,-4.37,01,0,99,0,99
2002,11,01,02,20,-4.36,1,-99999,99,-4.43,01,0,99,0,99
2002,11,01,02,25,-4.42,1,-99999,99,-4.44,01,0,99,0,99
2002,11,01,02,30,-4.41,1,-99999,99,-4.49,01,0,99,0,99
2002,11,01,02,35,-3.95,1,-99999,99,-4.29,01,0,99,0,99
2002,11,01,02,40,-3.73,1,-99999,99,-3.97,01,0,99,0,99
2002,11,01,02,45,-3.4,1,-99999,99,-3.56,01,0,99,0,99
2002,11,01,02,50,-2.46,1,-99999,99,-2.42,01,0,99,0,99
2002,11,01,02,55,-1.89,1,-99999,99,-1.72,01,0,99,0,99
2002,11,01,03,00,-1.8,1,-99999,99,-1.63,01,0,99,0,99
2002,11,01,03,05,-1.78,1,-99999,99,-1.64,01,0,99,0,99
2002,11,01,03,10,-1.85,1,-99999,99,-1.93,01,0,99,0,99
2002,11,01,03,15,-1.83,1,-99999,99,-1.87,01,0,99,0,99
2002,11,01,03,20,-1.95,1,-99999,99,-2.09,01,0,99,0,99
2002,11,01,03,25,-1.97,1,-99999,99,-2.23,01,0,99,0,99
2002,11,01,03,30,-1.94,1,-99999,99,-2.24,01,0,99,0,99
2002,11,01,03,35,-2.37,1,-99999,99,-2.66,01,0,99,0,99
2002,11,01,03,40,-2.64,1,-99999,99,-3.04,01,0,99,0,99
2002,11,01,03,45,-2.96,1,-99999,99,-3.32,01,0,99,0,99
2002,11,01,03,50,-3.43,1,-99999,99,-3.63,01,0,99,0,99
2002,11,01,03,55,-3.46,1,-99999,99,-3.6,01,0,99,0,99
2002,11,01,04,00,-3.43,1,-99999,99,-3.65,01,0,99,0,99
2002,11,01,04,05,-3.51,1,-99999,99,-3.93,01,0,99,0,99
2002,11,01,04,10,-3.51,1,-99999,99,-3.91,01,0,99,0,99
2002,11,01,04,15,-3.43,1,-99999,99,-3.69,01,0,99,0,99
2002,11,01,04,20,-2.83,1,-99999,99,-3.21,01,0,99,0,99
2002,11,01,04,25,-2.35,1,-99999,99,-2.48,01,0,99,0,99
2002,11,01,04,30,-2.35,1,-99999,99,-2.46,01,0,99,0,99
2002,11,01,04,35,-2.49,1,-99999,99,-2.63,01,0,99,0,99
2002,11,01,04,40,-3.14,1,-99999,99,-3.35,01,0,99,0,99
2002,11,01,04,45,-3.47,1,-99999,99,-3.56,01,0,99,0,99
2002,11,01,04,50,-3.51,1,-99999,99,-3.86,01,0,99,0,99
2002,11,01,04,55,-3.51,1,-99999,99,-3.9,01,0,99,0,99
2002,11,01,05,00,-3.53,1,-99999,99,-3.88,01,0,99,0,99
2002,11,01,05,05,-3.6,1,-99999,99,-3.96,01,0,99,0,99
2002,11,01,05,10,-3.63,1,-99999,99,-3.94,01,0,99,0,99
2002,11,01,05,15,-3.75,1,-99999,99,-3.97,01,0,99,0,99
2002,11,01,05,20,-3.62,1,-99999,99,-3.97,01,0,99,0,99
2002,11,01,05,25,-3.3,1,-99999,99,-3.48,01,0,99,0,99
2002,11,01,05,30,-2.57,1,-99999,99,-2.75,01,0,99,0,99
2002,11,01,05,35,-2.09,1,-99999,99,-2.26,01,0,99,0,99
2002,11,01,05,40,-1.97,1,-99999,99,-2.09,01,0,99,0,99
2002,11,01,05,45,-1.91,1,-99999,99,-2.11,01,0,99,0,99
2002,11,01,05,50,-2.13,1,-99999,99,-2.32,01,0,99,0,99
2002,11,01,05,55,-2.82,1,-99999,99,-2.98,01,0,99,0,99
2002,11,01,06,00,-3.35,1,-99999,99,-3.5,01,0,99,0,99
2002,11,01,06,05,-2.76,1,-99999,99,-3.04,01,0,99,0,99
2002,11,01,06,10,-2.16,1,-99999,99,-2.3,01,0,99,0,99
2002,11,01,06,15,-1.34,1,-99999,99,-1.51,01,0,99,0,99
2002,11,01,06,20,-0.26,1,-99999,99,-0.43,01,0,99,0,99
2002,11,01,06,25,0.48,1,-99999,99,0.36,01,0,99,0,99
2002,11,01,06,30,2.39,1,-99999,99,2.29,01,0,99,0,99
2002,11,01,06,35,4.53,1,-99999,99,4.39,01,0,99,0,99
2002,11,01,06,40,7.71,1,-99999,99,7.48,01,0,99,0,99
2002,11,01,06,45,11.43,1,-99999,99,11.25,01,0,99,0,99
2002,11,01,06,50,18.48,1,-99999,99,18.16,01,0,99,0,99
2002,11,01,06,55,38.95,1,-99999,99,40.25,01,0,99,0,99
2002,11,01,07,00,51.51,1,-99999,99,53.98,01,0,99,0,99
2002,11,01,07,05,62.7,1,-99999,99,66.23,01,0,99,0,99
2002,11,01,07,10,72.94,1,-99999,99,77.46,01,0,99,0,99
2002,11,01,07,15,86.47,1,-99999,99,92.02,01,0,99,0,99
2002,11,01,07,20,98.47,13,-99999,99,104.69,12,0,99,0,99
2002,11,01,07,25,110.32,13,-99999,99,117.42,12,0,99,0,99
2002,11,01,07,30,122.58,2,-99999,99,131.09,02,0,99,0,99
2002,11,01,07,35,138.27,17,-99999,99,148.11,16,0,99,0,99
2002,11,01,07,40,148.77,17,-99999,99,158.83,16,0,99,0,99
2002,11,01,07,45,169.99,21,-99999,99,181.71,20,0,99,0,99
2002,11,01,07,50,183.88,25,-99999,99,197.69,24,0,99,0,99
2002,11,01,07,55,166.42,17,-99999,99,180.06,16,0,99,0,99
2002,11,01,08,00,217.69,29,-99999,99,236.68,28,0,99,0,99
2002,11,01,08,05,236.05,1,-99999,99,256.65,08,0,99,0,99
2002,11,01,08,10,252.72,1,-99999,99,275.09,08,0,99,0,99
2002,11,01,08,15,269.76,1,-99999,99,294.24,08,0,99,0,99
2002,11,01,08,20,285.38,1,-99999,99,311.33,08,0,99,0,99
2002,11,01,08,25,297.06,1,-99999,99,323.51,08,0,99,0,99
2002,11,01,08,30,313.22,1,-99999,99,340.61,08,0,99,0,99
2002,11,01,08,35,330.03,1,-99999,99,359.74,08,0,99,0,99
2002,11,01,08,40,345.75,1,-99999,99,377.91,08,0,99,0,99
2002,11,01,08,45,355.02,1,-99999,99,389.75,08,0,99,0,99
2002,11,01,08,50,341.67,29,-99999,99,374.74,28,0,99,0,99
2002,11,01,08,55,352.04,33,-99999,99,385.7,32,0,99,0,99
2002,11,01,09,00,404.49,1,-99999,99,443.89,08,0,99,0,99
2002,11,01,09,05,455.23,1,-99999,99,499.01,08,0,99,0,99
2002,11,01,09,10,463.23,1,-99999,99,510.62,08,0,99,0,99
2002,11,01,09,15,493.22,1,-99999,99,537.19,08,0,99,0,99
2002,11,01,09,20,580.43,1,-99999,99,626.14,08,0,99,0,99
2002,11,01,09,25,334.51,13,-99999,99,354.67,12,0,99,0,99
2002,11,01,09,30,207.46,2,-99999,99,209.89,02,0,99,0,99
2002,11,01,09,35,266.56,2,-99999,99,283.77,02,0,99,0,99
2002,11,01,09,40,453.67,1,-99999,99,502.44,08,0,99,0,99
2002,11,01,09,45,644.26,1,-99999,99,694.57,08,0,99,0,99
2002,11,01,09,50,467.72,25,-99999,99,488.99,24,0,99,0,99
2002,11,01,09,55,314.13,2,-99999,99,314.78,02,0,99,0,99
2002,11,01,10,00,268.92,2,-99999,99,273.86,02,0,99,0,99
2002,11,01,10,05,282.23,2,-99999,99,286.41,02,0,99,0,99
2002,11,01,10,10,491.31,21,-99999,99,507.34,20,0,99,0,99
2002,11,01,10,15,365.41,2,-99999,99,385.21,02,0,99,0,99
2002,11,01,10,20,599,1,-99999,99,641.68,08,0,99,0,99
2002,11,01,10,25,683.16,1,-99999,99,737.95,08,0,99,0,99
2002,11,01,10,30,522.22,33,-99999,99,552.61,32,0,99,0,99
2002,11,01,10,35,434.37,2,-99999,99,440.25,02,0,99,0,99
2002,11,01,10,40,424.55,2,-99999,99,440.86,02,0,99,0,99
2002,11,01,10,45,422.49,2,-99999,99,441.53,02,0,99,0,99
2002,11,01,10,50,610.29,1,-99999,99,648.69,08,0,99,0,99
2002,11,01,10,55,733.06,1,-99999,99,802.36,08,0,99,0,99
2002,11,01,11,00,763.75,1,-99999,99,840.56,08,0,99,0,99
2002,11,01,11,05,653.93,1,-99999,99,703.72,08,0,99,0,99
2002,11,01,11,10,372.86,2,-99999,99,382.38,02,0,99,0,99
2002,11,01,11,15,485.8,13,-99999,99,500.83,12,0,99,0,99
2002,11,01,11,20,410.89,2,-99999,99,416.37,02,0,99,0,99
2002,11,01,11,25,344.69,2,-99999,99,354.54,02,0,99,0,99
2002,11,01,11,30,462.19,21,-99999,99,504.72,20,0,99,0,99
2002,11,01,11,35,425.34,2,-99999,99,437.6,02,0,99,0,99
2002,11,01,11,40,466.08,2,-99999,99,478.7,02,0,99,0,99
2002,11,01,11,45,323.34,2,-99999,99,322.65,02,0,99,0,99
2002,11,01,11,50,463.07,13,-99999,99,487.94,12,0,99,0,99
2002,11,01,11,55,642.52,1,-99999,99,707.46,08,0,99,0,99
2002,11,01,12,00,437.28,13,-99999,99,465.2,12,0,99,0,99
2002,11,01,12,05,197.36,2,-99999,99,195.88,02,0,99,0,99
2002,11,01,12,10,307.26,2,-99999,99,314.28,02,0,99,0,99
2002,11,01,12,15,382.37,2,-99999,99,391.38,02,0,99,0,99
2002,11,01,12,20,340.64,2,-99999,99,349.54,02,0,99,0,99
2002,11,01,12,25,254.55,2,-99999,99,253.23,02,0,99,0,99
2002,11,01,12,30,310.41,2,-99999,99,311.72,02,0,99,0,99
2002,11,01,12,35,380.19,2,-99999,99,382.4,02,0,99,0,99
2002,11,01,12,40,324.54,2,-99999,99,319.33,02,0,99,0,99
2002,11,01,12,45,290.86,2,-99999,99,284.37,02,0,99,0,99
2002,11,01,12,50,273.01,2,-99999,99,266.67,02,0,99,0,99
2002,11,01,12,55,250.79,2,-99999,99,246.18,02,0,99,0,99
2002,11,01,13,00,255.89,2,-99999,99,254.13,02,0,99,0,99
2002,11,01,13,05,279.04,2,-99999,99,273.67,02,0,99,0,99
2002,11,01,13,10,258.9,2,-99999,99,256.37,02,0,99,0,99
2002,11,01,13,15,268.27,2,-99999,99,265.46,02,0,99,0,99
2002,11,01,13,20,284.08,2,-99999,99,278.59,02,0,99,0,99
2002,11,01,13,25,236.15,2,-99999,99,235.38,02,0,99,0,99
2002,11,01,13,30,248.1,2,-99999,99,246.66,02,0,99,0,99
2002,11,01,13,35,194.09,2,-99999,99,191.87,02,0,99,0,99
2002,11,01,13,40,179.12,2,-99999,99,175.64,02,0,99,0,99
2002,11,01,13,45,170.48,2,-99999,99,166.58,02,0,99,0,99
2002,11,01,13,50,176.38,2,-99999,99,174.63,02,0,99,0,99
2002,11,01,13,55,182.79,2,-99999,99,179.06,02,0,99,0,99
2002,11,01,14,00,155.49,2,-99999,99,153.36,02,0,99,0,99
2002,11,01,14,05,107.22,2,-99999,99,105.54,02,0,99,0,99
2002,11,01,14,10,115.84,2,-99999,99,113.89,02,0,99,0,99
2002,11,01,14,15,129.24,2,-99999,99,127.33,02,0,99,0,99
2002,11,01,14,20,135.56,2,-99999,99,134.75,02,0,99,0,99
2002,11,01,14,25,144.81,2,-99999,99,143.13,02,0,99,0,99
2002,11,01,14,30,154.68,2,-99999,99,149.2,02,0,99,0,99
2002,11,01,14,35,153.28,2,-99999,99,150.94,02,0,99,0,99
2002,11,01,14,40,171.52,2,-99999,99,167.1,02,0,99,0,99
2002,11,01,14,45,155.2,2,-99999,99,150.65,02,0,99,0,99
2002,11,01,14,50,144.27,2,-99999,99,140.58,02,0,99,0,99
2002,11,01,14,55,114.41,2,-99999,99,112.56,02,0,99,0,99
2002,11,01,15,00,105.24,2,-99999,99,103.58,02,0,99,0,99
2002,11,01,15,05,121.36,2,-99999,99,117.51,02,0,99,0,99
2002,11,01,15,10,124.31,2,-99999,99,123.84,02,0,99,0,99
2002,11,01,15,15,103.12,2,-99999,99,104.18,02,0,99,0,99
2002,11,01,15,20,120.78,2,-99999,99,119.79,02,0,99,0,99
2002,11,01,15,25,109.84,2,-99999,99,109.76,02,0,99,0,99
2002,11,01,15,30,101.45,2,-99999,99,100.21,02,0,99,0,99
2002,11,01,15,35,98.08,2,-99999,99,96.44,02,0,99,0,99
2002,11,01,15,40,74.07,2,-99999,99,73.24,02,0,99,0,99
2002,11,01,15,45,71.74,2,-99999,99,69.86,02,0,99,0,99
2002,11,01,15,50,75.83,2,-99999,99,74.2,02,0,99,0,99
2002,11,01,15,55,89.28,2,-99999,99,87.19,02,0,99,0,99
2002,11,01,16,00,83.35,2,-99999,99,82.64,02,0,99,0,99
2002,11,01,16,05,73.93,2,-99999,99,72.96,02,0,99,0,99
2002,11,01,16,10,61.24,2,-99999,99,60.2,02,0,99,0,99
2002,11,01,16,15,60.09,2,-99999,99,58.76,02,0,99,0,99
2002,11,01,16,20,45.1,1,-99999,99,44.23,01,0,99,0,99
2002,11,01,16,25,35.55,1,-99999,99,34.68,01,0,99,0,99
2002,11,01,16,30,33.76,1,-99999,99,32.96,01,0,99,0,99
2002,11,01,16,35,28.05,1,-99999,99,27.44,01,0,99,0,99
2002,11,01,16,40,18.51,1,-99999,99,18.11,01,0,99,0,99
2002,11,01,16,45,13.73,1,-99999,99,13.35,01,0,99,0,99
2002,11,01,16,50,9.14,1,-99999,99,8.72,01,0,99,0,99
2002,11,01,16,55,6.29,1,-99999,99,5.68,01,0,99,0,99
2002,11,01,17,00,4.83,1,-99999,99,4.51,01,0,99,0,99
2002,11,01,17,05,1.99,1,-99999,99,1.9,01,0,99,0,99
2002,11,01,17,10,0.23,1,-99999,99,0,01,0,99,0,99
2002,11,01,17,15,-0.97,1,-99999,99,-1.25,01,0,99,0,99
2002,11,01,17,20,-1.74,1,-99999,99,-1.78,01,0,99,0,99
2002,11,01,17,25,-2.45,1,-99999,99,-2.67,01,0,99,0,99
2002,11,01,17,30,-2.78,1,-99999,99,-3.01,01,0,99,0,99
2002,11,01,17,35,-2.79,1,-99999,99,-2.99,01,0,99,0,99
2002,11,01,17,40,-2.71,1,-99999,99,-3,01,0,99,0,99
2002,11,01,17,45,-2.76,1,-99999,99,-3,01,0,99,0,99
2002,11,01,17,50,-2.63,1,-99999,99,-2.86,01,0,99,0,99
2002,11,01,17,55,-2.64,1,-99999,99,-2.95,01,0,99,0,99
2002,11,01,18,00,-2.71,1,-99999,99,-2.97,01,0,99,0,99
2002,11,01,18,05,-2.9,1,-99999,99,-3.1,01,0,99,0,99
2002,11,01,18,10,-2.66,1,-99999,99,-2.91,01,0,99,0,99
2002,11,01,18,15,-2.94,1,-99999,99,-3.18,01,0,99,0,99
2002,11,01,18,20,-3.47,1,-99999,99,-3.64,01,0,99,0,99
2002,11,01,18,25,-3.78,1,-99999,99,-4,01,0,99,0,99
2002,11,01,18,30,-3.57,1,-99999,99,-3.93,01,0,99,0,99
2002,11,01,18,35,-3.49,1,-99999,99,-3.64,01,0,99,0,99
2002,11,01,18,40,-3.53,1,-99999,99,-3.86,01,0,99,0,99
2002,11,01,18,45,-4.13,1,-99999,99,-4.32,01,0,99,0,99
2002,11,01,18,50,-4.43,1,-99999,99,-4.47,01,0,99,0,99
2002,11,01,18,55,-4.46,1,-99999,99,-4.5,01,0,99,0,99
2002,11,01,19,00,-4.44,1,-99999,99,-4.5,01,0,99,0,99
2002,11,01,19,05,-4.2,1,-99999,99,-4.41,01,0,99,0,99
2002,11,01,19,10,-4.2,1,-99999,99,-4.39,01,0,99,0,99
2002,11,01,19,15,-4.44,1,-99999,99,-4.45,01,0,99,0,99
2002,11,01,19,20,-4,1,-99999,99,-4.28,01,0,99,0,99
2002,11,01,19,25,-3.73,1,-99999,99,-4,01,0,99,0,99
2002,11,01,19,30,-3.51,1,-99999,99,-3.92,01,0,99,0,99
2002,11,01,19,35,-3.63,1,-99999,99,-3.98,01,0,99,0,99
2002,11,01,19,40,-3.95,1,-99999,99,-4.16,01,0,99,0,99
2002,11,01,19,45,-4.21,1,-99999,99,-4.35,01,0,99,0,99
2002,11,01,19,50,-3.85,1,-99999,99,-4.04,01,0,99,0,99
2002,11,01,19,55,-3.59,1,-99999,99,-3.94,01,0,99,0,99
2002,11,01,20,00,-3.51,1,-99999,99,-3.9,01,0,99,0,99
2002,11,01,20,05,-3.59,1,-99999,99,-3.94,01,0,99,0,99
2002,11,01,20,10,-3.56,1,-99999,99,-3.94,01,0,99,0,99
2002,11,01,20,15,-3.51,1,-99999,99,-3.93,01,0,99,0,99
2002,11,01,20,20,-3.38,1,-99999,99,-3.55,01,0,99,0,99
2002,11,01,20,25,-3.37,1,-99999,99,-3.51,01,0,99,0,99
2002,11,01,20,30,-3.73,1,-99999,99,-4.04,01,0,99,0,99
2002,11,01,20,35,-4.16,1,-99999,99,-4.31,01,0,99,0,99
2002,11,01,20,40,-4.43,1,-99999,99,-4.46,01,0,99,0,99
2002,11,01,20,45,-4.41,1,-99999,99,-4.47,01,0,99,0,99
2002,11,01,20,50,-4.25,1,-99999,99,-4.41,01,0,99,0,99
2002,11,01,20,55,-3.88,1,-99999,99,-4.19,01,0,99,0,99
2002,11,01,21,00,-3.86,1,-99999,99,-4.16,01,0,99,0,99
2002,11,01,21,05,-3.75,1,-99999,99,-3.99,01,0,99,0,99
2002,11,01,21,10,-3.79,1,-99999,99,-4.02,01,0,99,0,99
2002,11,01,21,15,-3.86,1,-99999,99,-4.16,01,0,99,0,99
2002,11,01,21,20,-3.97,1,-99999,99,-4.27,01,0,99,0,99
2002,11,01,21,25,-3.88,1,-99999,99,-4.19,01,0,99,0,99
2002,11,01,21,30,-4.24,1,-99999,99,-4.4,01,0,99,0,99
2002,11,01,21,35,-4.1,1,-99999,99,-4.4,01,0,99,0,99
2002,11,01,21,40,-3.88,1,-99999,99,-4.13,01,0,99,0,99
2002,11,01,21,45,-4.12,1,-99999,99,-4.29,01,0,99,0,99
2002,11,01,21,50,-4.32,1,-99999,99,-4.41,01,0,99,0,99
2002,11,01,21,55,-4.37,1,-99999,99,-4.43,01,0,99,0,99
2002,11,01,22,00,-4.38,1,-99999,99,-4.44,01,0,99,0,99
2002,11,01,22,05,-4.33,1,-99999,99,-4.41,01,0,99,0,99
2002,11,01,22,10,-4.1,1,-99999,99,-4.31,01,0,99,0,99
2002,11,01,22,15,-4.11,1,-99999,99,-4.27,01,0,99,0,99
2002,11,01,22,20,-4.27,1,-99999,99,-4.4,01,0,99,0,99
2002,11,01,22,25,-3.77,1,-99999,99,-3.99,01,0,99,0,99
2002,11,01,22,30,-3.54,1,-99999,99,-3.94,01,0,99,0,99
2002,11,01,22,35,-3.51,1,-99999,99,-3.94,01,0,99,0,99
2002,11,01,22,40,-3.51,1,-99999,99,-3.93,01,0,99,0,99
2002,11,01,22,45,-3.56,1,-99999,99,-3.94,01,0,99,0,99
2002,11,01,22,50,-3.53,1,-99999,99,-3.94,01,0,99,0,99
2002,11,01,22,55,-3.71,1,-99999,99,-3.97,01,0,99,0,99
2002,11,01,23,00,-3.94,1,-99999,99,-4.21,01,0,99,0,99
2002,11,01,23,05,-4.04,1,-99999,99,-4.21,01,0,99,0,99
2002,11,01,23,10,-4.26,1,-99999,99,-4.41,01,0,99,0,99
2002,11,01,23,15,-4.24,1,-99999,99,-4.41,01,0,99,0,99
2002,11,01,23,20,-4.2,1,-99999,99,-4.38,01,0,99,0,99
2002,11,01,23,25,-3.89,1,-99999,99,-4.1,01,0,99,0,99
2002,11,01,23,30,-3.64,1,-99999,99,-3.99,01,0,99,0,99
2002,11,01,23,35,-3.97,1,-99999,99,-4.2,01,0,99,0,99
2002,11,01,23,40,-4.16,1,-99999,99,-4.41,01,0,99,0,99
2002,11,01,23,45,-4.06,1,-99999,99,-4.32,01,0,99,0,99
2002,11,01,23,50,-4.34,1,-99999,99,-4.44,01,0,99,0,99
2002,11,01,23,55,-4.38,1,-99999,99,-4.43,01,0,99,0,99
2002,11,02,00,00,-4.41,1,-99999,99,-4.49,01,0,99,0,99
2002,11,02,00,05,-4.35,1,-99999,99,-4.45,01,0,99,0,99
2002,11,02,00,10,-4.44,1,2728.9,8,-4.44,01,0,99,0,99
2002,11,02,00,15,-4.42,1,-99999,99,-4.45,01,0,99,0,99
2002,11,02,00,20,-4.46,1,2715.9,8,-4.49,01,0,99,0,99
2002,11,02,00,25,-4.41,1,-99999,99,-4.48,01,0,99,0,99
2002,11,02,00,30,-4.38,1,-99999,99,-4.45,01,0,99,0,99
2002,11,02,00,35,-4.45,1,2532.9,8,-4.42,01,0,99,0,99
2002,11,02,00,40,-4.51,1,-99999,99,-4.45,01,0,99,0,99
2002,11,02,00,45,-4,1,-99999,99,-4.15,01,0,99,0,99
2002,11,02,00,50,-3.95,1,-99999,99,-4.13,01,0,99,0,99
2002,11,02,00,55,-4.13,1,-99999,99,-4.29,01,0,99,0,99
2002,11,02,01,00,-4.19,1,-99999,99,-4.29,01,0,99,0,99
2002,11,02,01,05,-4.2,1,2615.8,8,-4.37,01,0,99,0,99
2002,11,02,01,10,-4.19,1,2678.1,8,-4.33,01,0,99,0,99
2002,11,02,01,15,-4.39,1,2597.6,8,-4.43,01,0,99,0,99
2002,11,02,01,20,-4.35,1,2569.9,8,-4.43,01,0,99,0,99
2002,11,02,01,25,-4.41,1,2621.8,8,-4.45,01,0,99,0,99
2002,11,02,01,30,-4.35,1,2616,8,-4.43,01,0,99,0,99
2002,11,02,01,35,-4.44,1,2553.3,8,-4.45,01,0,99,0,99
2002,11,02,01,40,-4.39,1,2621.8,8,-4.44,01,0,99,0,99
2002,11,02,01,45,-4.36,1,2541.7,8,-4.43,01,0,99,0,99
2002,11,02,01,50,-4.49,1,2465.4,8,-4.5,01,0,99,0,99
2002,11,02,01,55,-4.43,1,2509.8,8,-4.46,01,0,99,0,99
2002,11,02,02,00,-4.38,1,2294.8,8,-4.45,01,0,99,0,99
2002,11,02,02,05,-4.54,1,2291.3,8,-4.72,01,0,99,0,99
2002,11,02,02,10,-4.61,1,2364.2,8,-4.86,01,0,99,0,99
2002,11,02,02,15,-4.46,1,2475.1,8,-4.54,01,0,99,0,99
2002,11,02,02,20,-4.41,1,2403.5,8,-4.43,01,0,99,0,99
2002,11,02,02,25,-4.38,1,2484.1,8,-4.43,01,0,99,0,99
2002,11,02,02,30,-4.35,1,2424.1,8,-4.43,01,0,99,0,99
2002,11,02,02,35,-4.48,1,2300.8,8,-4.45,01,0,99,0,99
2002,11,02,02,40,-4.43,1,2201.8,8,-4.44,01,0,99,0,99
2002,11,02,02,45,-4.56,1,2016.4,8,-4.58,01,0,99,0,99
2002,11,02,02,50,-5.08,1,1846.7,8,-4.99,01,0,99,0,99
2002,11,02,02,55,-4.74,1,1969.5,8,-4.72,01,0,99,0,99
2002,11,02,03,00,-4.49,1,1979.6,8,-4.54,01,0,99,0,99
2002,11,02,03,05,-5.18,1,1679.2,8,-5.27,01,0,99,0,99
2002,11,02,03,10,-5.63,1,1984.6,8,-5.82,01,0,99,0,99
2002,11,02,03,15,-5.39,1,2236.6,8,-5.45,01,0,99,0,99
2002,11,02,03,20,-5.18,1,2307.9,8,-5.07,01,0,99,0,99
2002,11,02,03,25,-5.12,1,2286.6,8,-5,01,0,99,0,99
2002,11,02,03,30,-4.87,1,2485.8,8,-4.81,01,0,99,0,99
2002,11,02,03,35,-4.26,1,2591.8,8,-4.4,01,0,99,0,99
2002,11,02,03,40,-3.77,1,2485.8,8,-3.97,01,0,99,0,99
2002,11,02,03,45,-3.57,1,2603.2,8,-3.9,01,0,99,0,99
2002,11,02,03,50,-3.51,1,2661.7,8,-3.67,01,0,99,0,99
2002,11,02,03,55,-3.5,1,2629.6,8,-3.91,01,0,99,0,99
2002,11,02,04,00,-3.55,1,2480.8,8,-3.94,01,0,99,0,99
2002,11,02,04,05,-3.56,1,2398.8,8,-3.95,01,0,99,0,99
2002,11,02,04,10,-3.51,1,2478.9,8,-3.92,01,0,99,0,99
2002,11,02,04,15,-3.39,1,2617.3,8,-3.58,01,0,99,0,99
2002,11,02,04,20,-3.1,1,2644.8,8,-3.38,01,0,99,0,99
2002,11,02,04,25,-3.51,1,2401.8,8,-3.79,01,0,99,0,99
2002,11,02,04,30,-3.9,1,2267.7,8,-4.08,01,0,99,0,99
2002,11,02,04,35,-3.89,1,2352.3,8,-4.12,01,0,99,0,99
2002,11,02,04,40,-3.7,1,2438,8,-3.98,01,0,99,0,99
2002,11,02,04,45,-3.78,1,2389.4,8,-3.95,01,0,99,0,99
2002,11,02,04,50,-3.73,1,2470.5,8,-3.97,01,0,99,0,99
2002,11,02,04,55,-3.55,1,2578.6,8,-3.94,01,0,99,0,99
2002,11,02,05,00,-3.53,1,2582.6,8,-3.79,01,0,99,0,99
2002,11,02,05,05,-3.13,1,2586.4,8,-3.23,01,0,99,0,99
2002,11,02,05,10,-2.88,1,2552.1,8,-2.93,01,0,99,0,99
2002,11,02,05,15,-2.77,1,2528.7,8,-2.9,01,0,99,0,99
2002,11,02,05,20,-3.21,1,2445.2,8,-3.04,01,0,99,0,99
2002,11,02,05,25,-3.1,1,2468.7,8,-2.96,01,0,99,0,99
2002,11,02,05,30,-2.93,1,2465.3,8,-2.84,01,0,99,0,99
2002,11,02,05,35,-3.09,1,2505,8,-2.92,01,0,99,0,99
2002,11,02,05,40,-3.26,1,2449.7,8,-3.22,01,0,99,0,99
2002,11,02,05,45,-3.53,1,2394.8,8,-3.68,01,0,99,0,99
2002,11,02,05,50,-4.05,1,2346,8,-4.23,01,0,99,0,99
2002,11,02,05,55,-4.11,1,2427.2,8,-4.26,01,0,99,0,99
2002,11,02,06,00,-3.51,1,2474.7,8,-3.78,01,0,99,0,99
2002,11,02,06,05,-3.17,1,2608.7,8,-3.18,01,0,99,0,99
2002,11,02,06,10,-2.4,1,-99999,99,-2.34,01,0,99,0,99
2002,11,02,06,15,-0.79,1,2658.5,8,-0.79,01,0,99,0,99
2002,11,02,06,20,0.17,1,2485.4,8,0,01,0,99,0,99
2002,11,02,06,25,0.91,1,2625.5,8,0.75,01,0,99,0,99
2002,11,02,06,30,2.64,1,2696,8,2.49,01,0,99,0,99
2002,11,02,06,35,4.42,1,-99999,99,4.34,01,0,99,0,99
2002,11,02,06,40,7.11,1,-99999,99,6.91,01,0,99,0,99
2002,11,02,06,45,12.67,1,-99999,99,12.38,01,0,99,0,99
2002,11,02,06,50,25.46,1,-99999,99,25.2,01,0,99,0,99
2002,11,02,06,55,31.6,1,-99999,99,30.87,01,0,99,0,99
2002,11,02,07,00,31.3,1,-99999,99,29.65,01,0,99,0,99
2002,11,02,07,05,43.35,1,-99999,99,42.17,01,0,99,0,99
2002,11,02,07,10,43.08,1,-99999,99,41.78,01,0,99,0,99
2002,11,02,07,15,44.64,1,-99999,99,44.07,01,0,99,0,99
2002,11,02,07,20,46.77,2,-99999,99,46.45,02,0,99,0,99
2002,11,02,07,25,92.04,2,-99999,99,95.22,02,0,99,0,99
2002,11,02,07,30,115.01,2,-99999,99,115.94,02,0,99,0,99
2002,11,02,07,35,202.19,1,-99999,99,213.51,08,0,99,0,99
2002,11,02,07,40,131.31,13,-99999,99,138.63,12,0,99,0,99
2002,11,02,07,45,77.25,2,-99999,99,79.94,02,0,99,0,99
2002,11,02,07,50,148.85,2,-99999,99,150.35,02,0,99,0,99
2002,11,02,07,55,102.41,2,-99999,99,99.16,02,0,99,0,99
2002,11,02,08,00,107.1,2,-99999,99,105.14,02,0,99,0,99
2002,11,02,08,05,158.09,2,-99999,99,163.03,02,0,99,0,99
2002,11,02,08,10,288.97,1,-99999,99,311.19,08,0,99,0,99
2002,11,02,08,15,352.59,1,-99999,99,371.26,08,0,99,0,99
2002,11,02,08,20,334.06,1,-99999,99,345.94,08,0,99,0,99
2002,11,02,08,25,163.46,2,-99999,99,157.11,02,0,99,0,99
2002,11,02,08,30,152.33,2,-99999,99,145.25,02,0,99,0,99
2002,11,02,08,35,197.99,2,-99999,99,193.12,02,0,99,0,99
2002,11,02,08,40,271.35,2,-99999,99,275.84,02,0,99,0,99
2002,11,02,08,45,215.24,2,-99999,99,212.15,02,0,99,0,99
2002,11,02,08,50,159.4,2,-99999,99,156.23,02,0,99,0,99
2002,11,02,08,55,210.44,2,-99999,99,217.27,02,0,99,0,99
2002,11,02,09,00,278.5,2,-99999,99,287,02,0,99,0,99
2002,11,02,09,05,299.73,13,-99999,99,318.78,12,0,99,0,99
2002,11,02,09,10,487.58,1,-99999,99,523.03,08,0,99,0,99
2002,11,02,09,15,284.09,2,-99999,99,282.48,02,0,99,0,99
2002,11,02,09,20,242.64,2,-99999,99,232.57,02,0,99,0,99
2002,11,02,09,25,253.59,2,-99999,99,247.83,02,0,99,0,99
2002,11,02,09,30,198.05,2,-99999,99,196.91,02,0,99,0,99
2002,11,02,09,35,183.79,2,-99999,99,182.18,02,0,99,0,99
2002,11,02,09,40,235.63,2,-99999,99,232.55,02,0,99,0,99
2002,11,02,09,45,319.54,2,-99999,99,313.77,02,0,99,0,99
2002,11,02,09,50,341.53,2,-99999,99,337.45,02,0,99,0,99
2002,11,02,09,55,314.29,2,-99999,99,317.79,02,0,99,0,99
2002,11,02,10,00,258.71,2,-99999,99,258.09,02,0,99,0,99
2002,11,02,10,05,206.5,2,-99999,99,205.49,02,0,99,0,99
2002,11,02,10,10,170.1,2,-99999,99,167.64,02,0,99,0,99
2002,11,02,10,15,151.15,2,-99999,99,149.84,02,0,99,0,99
2002,11,02,10,20,139.47,2,-99999,99,136.25,02,0,99,0,99
2002,11,02,10,25,135.07,2,-99999,99,133.92,02,0,99,0,99
2002,11,02,10,30,136.49,2,-99999,99,135.83,02,0,99,0,99
2002,11,02,10,35,148.84,2,-99999,99,148.85,02,0,99,0,99
2002,11,02,10,40,201.03,2,-99999,99,200.7,02,0,99,0,99
2002,11,02,10,45,257.73,2,-99999,99,251.75,02,0,99,0,99
2002,11,02,10,50,262.95,2,-99999,99,255.72,02,0,99,0,99
2002,11,02,10,55,200.51,2,2655.6,8,197.23,02,0,99,0,99
2002,11,02,11,00,147.47,2,2472.6,8,145.85,02,0,99,0,99
2002,11,02,11,05,142,2,2347.2,8,138.99,02,0,99,0,99
2002,11,02,11,10,152.06,2,2111.7,8,147.5,02,0,99,0,99
2002,11,02,11,15,148.01,2,2081.5,8,143.75,02,0,99,0,99
2002,11,02,11,20,148.83,2,2014.6,8,144.15,02,0,99,0,99
2002,11,02,11,25,149.44,2,1817,8,145.36,02,0,99,0,99
2002,11,02,11,30,142.21,2,1649.9,8,140.45,02,0,99,0,99
2002,11,02,11,35,125.43,2,1680,8,124.45,02,0,99,0,99
2002,11,02,11,40,104.56,2,1642.9,8,105.18,02,0,99,0,99
2002,11,02,11,45,109.5,2,1624,8,108.76,02,0,99,0,99
2002,11,02,11,50,113.81,2,1602.6,8,110.7,02,0,99,0,99
2002,11,02,11,55,125.54,2,1514.6,8,122.77,02,0,99,0,99
2002,11,02,12,00,134.27,2,1377.3,8,131.81,02,0,99,0,99
2002,11,02,12,05,124.93,2,1258.2,8,123.12,02,0,99,0,99
2002,11,02,12,10,124.26,2,1156.1,8,121.88,02,0,99,0,99
2002,11,02,12,15,141.77,2,1142.2,8,139.35,02,0,99,0,99
2002,11,02,12,20,151.16,2,1070.5,8,148.12,02,0,99,0,99
2002,11,02,12,25,148.8,2,1268.8,8,145.81,02,0,99,0,99
2002,11,02,12,30,145.58,2,1169.8,8,145.19,02,0,99,0,99
2002,11,02,12,35,185.13,2,1228.3,8,183.29,02,0,99,0,99
2002,11,02,12,40,172.53,2,1179.7,8,170.08,02,0,99,0,99
2002,11,02,12,45,143.62,2,1117.6,8,139.77,02,0,99,0,99
2002,11,02,12,50,138.04,2,1054.4,8,133.78,02,0,99,0,99